Simultaneous Nadir Overpasses (SNOs) Predictions

Prediction of SNOs near equator between AQUA and NPP Satellite Orbit:

Table of predicted SNOs near equator for the next 14.0 days since TLE Epoch: 1/11/2019
Index Date (AQUA) Time (AQUA) AQUA Lat,Lon Date (NPP) Time (NPP) NPP Lat,Lon Distance(km) Time Diff (sec)
1 01/14/2019 07:52:48 -5.94, -95.15 01/14/2019 07:42:53 -5.91, -95.39 27.05 595
2 01/14/2019 08:41:05 1.45, 73.43 01/14/2019 08:32:24 1.32, 72.93 57.00 521
3 01/14/2019 09:29:11 3.13,-117.94 01/14/2019 09:21:46 3.31,-118.70 87.08 445
4 01/17/2019 00:08:52 -4.49, 21.05 01/16/2019 23:59:21 -4.42, 20.72 37.20 571
5 01/17/2019 00:57:08 -0.06,-170.37 01/17/2019 00:48:52 -0.17,-170.96 67.19 496
6 01/17/2019 01:45:14 4.64, -1.73 01/17/2019 01:38:14 4.80, -2.59 97.17 420
7 01/19/2019 15:43:02 29.99, -36.60 01/19/2019 15:33:02 30.67, -37.22 96.41 600
8 01/19/2019 16:24:57 -3.04, 137.24 01/19/2019 16:15:50 -2.93, 136.82 47.61 547
9 01/19/2019 17:13:13 -1.51, -54.18 01/19/2019 17:05:21 -1.66, -54.85 77.41 472
10 01/22/2019 07:52:54 6.06, 84.82 01/22/2019 07:42:56 6.02, 84.57 27.37 598
11 01/22/2019 08:41:01 -1.54,-106.56 01/22/2019 08:32:19 -1.44,-107.07 57.91 522
12 01/22/2019 09:29:16 -3.07, 62.04 01/22/2019 09:21:49 -3.21, 61.26 87.59 447
13 01/25/2019 00:08:59 4.62,-158.99 01/24/2019 23:59:25 4.53,-159.32 37.71 574
14 01/25/2019 00:57:06 -0.10, 9.63 01/25/2019 00:48:48 0.04, 9.03 68.29 498
15 01/25/2019 01:45:21 -4.51, 178.23 01/25/2019 01:38:18 -4.69, 177.37 97.65 423




NCC Satellite Simultaneous Nadir Overpasses (SNOs) Prediction Service
